Flag for U.S.A. Weather past 2 weeks in St. Paul, Minnesota, U.S.A.

Now
44 °F

Overcast.


Feels Like: 39 °F
Forecast: 42 / 52 °F
Wind: 10 mph from Southeast

Location: St. Paul Downtown Holman Field


UV Index: 0 (Low)

Visibility: 10 mi


Pressure: 29.94 "Hg

Humidity: 76%

Dew point: 37 °F

Location of St. PaulLocation

Historic Weather in St. Paul

°F

St. Paul temperature yesterday

Maximum temperature yesterday: 48 °F (at 10:53 AM)
Minimum temperature yesterday: 41 °F (at 2:53 PM)
Average temperature yesterday: 44 °F

Past Weeks' High & Low Weather Summary

 TemperatureHumidityPressure
High74 °F (Apr 20, 2:53 PM)100% (Apr 19, 11:04 PM)30.41 "Hg (Apr 19, 11:04 PM)
Low19 °F (Apr 15, 6:53 AM)16% (Apr 10, 2:53 PM)29.49 "Hg (Apr 9, 10:53 PM)
Average45 °F60%30.00 "Hg
* Reported Apr 9 12:53 AM — Apr 24 12:53 AM, St. Paul, Weather by CustomWeather, © 2014

Note: Actual official high and low records may vary slightly from our data, if they occured in-between our weather recording intervals... More about our weather records

Advertising

Historic Weather Conditions — Data for Previous 24 hours

 ConditionsComfort  
Time TempWeatherWind HumidityBarometerVisibility
12:53 AM
Apr 24
44 °FOvercast.10 mph76%29.94 "Hg10 mi
11:53 PM
Apr 23
44 °FOvercast.10 mph76%29.95 "Hg10 mi
10:53 PM43 °FOvercast.13 mph82%29.95 "Hg10 mi
9:53 PM43 °FOvercast.13 mph82%29.95 "Hg10 mi
8:53 PM43 °FMostly cloudy.16 mph82%29.95 "Hg10 mi
7:53 PM43 °FLight rain. Overcast.13 mph82%29.96 "Hg6 mi
6:53 PM42 °FOvercast.12 mph85%29.97 "Hg10 mi
5:53 PM42 °FLight rain. Overcast.9 mph82%29.98 "Hg10 mi
4:53 PM41 °FLight rain. Overcast.10 mph82%30.01 "Hg10 mi
3:53 PM41 °FMostly cloudy.12 mph82%30.06 "Hg10 mi
2:53 PM41 °FLight rain. Mostly cloudy.15 mph82%30.08 "Hg6 mi
1:53 PM44 °FLight rain. Overcast.14 mph71%30.09 "Hg10 mi
12:53 PM47 °FOvercast.14 mph48%30.09 "Hg10 mi
11:53 AM47 °FPartly sunny.17 mph48%30.10 "Hg10 mi
10:53 AM48 °FPartly sunny.13 mph48%30.12 "Hg10 mi
9:53 AM46 °FPartly sunny.14 mph48%30.11 "Hg10 mi
8:53 AM45 °FSunny.15 mph51%30.11 "Hg10 mi
7:53 AM44 °FSunny.14 mph51%30.12 "Hg10 mi
6:53 AM43 °FClear.10 mph56%30.11 "Hg10 mi
5:53 AM43 °FClear.8 mph56%30.11 "Hg10 mi
4:53 AM43 °FClear.8 mph53%30.10 "Hg10 mi
3:53 AM43 °FClear.8 mph51%30.10 "Hg10 mi
2:53 AM43 °FClear.7 mph51%30.10 "Hg10 mi
Weather by CustomWeather, © 2014

See weather overview